Starlink 34808

operational
NORAD ID: 65745 Int'l Des: 2025-216 Owner: SPXS Country: US Constellation: starlink
NOTLE

关于 Starlink 34808

正在加载描述...

实时位置

正在加载3D地球...

即将过境

高度历史

Altitude vs Time

uPlot chart will show altitude changes over time

两行轨道根数

1 65745U 25216M 25340.90545851 .00044907 00000-0 15174-2 0 9998
2 65745 53.1619 43.4554 0000232 323.2186 36.8799 15.30239126 12312
Epoch: Dec 6, 2025 • Age: 30 hours

当前状态

高度 478.0 km
速度 7.63 km/s
星下点 37.57°N, 44.23°E
发射日期 Sep 25, 2025
运行时间 0.1 years
类型 internet

技术详情

分类 Payload
质量 575.00 kg
干质量 530.00 kg
总质量 575.00 kg
长度 0.30 m
直径 4.10 m
跨度 29.00 m
形状 Box + pan
制造商 SPXS
平台类型 Starlink V2MO
阶段状态 In Orbit
所有者/国家 SPXS/US

大型星座

Loading constellations...